User: anonymous   Login
Location: Unspecified
(0.0000°N, 0.0000°E)
Time: 11:16:08
(UTC+00:00)
Language:

AO-92 - Orbit

View from above orbital plane
View from above orbital plane
View from above satellite
View from above satellite

Ground track
Ground track

The orbit data is extracted from the following two-line orbital elements,

1 43137U 18004AC  19347.94038808 +.00000765 +00000-0 +34782-4 0  9991
2 43137 097.4691 055.1762 0009051 001.5919 358.5345 15.23766194106646
Epoch (UTC): 13 December 2019 22:34:09
Eccentricity: 0.0009051
inclination: 97.4691°
perigee height: 488 km
apogee height: 501 km
right ascension of ascending node: 55.1762°
argument of perigee: 1.5919°
revolutions per day: 15.23766194
mean anomaly at epoch: 358.5345°
orbit number at epoch: 10664

The dashed part of the orbit path shows where the satellite is in the earth's shadow,  

DLR